"Sample Date","Sample Time","Sample Value","Units","Flow Rate","Sample Interval","Number Channels","Micron Size 0","Counts/Channel 0","Micron Size 1","Counts/Channel 1","Micron Size 2","Counts/Channel 2","Micron Size 3","Counts/Channel 3","Micron Size 4","Counts/Channel 4","Micron Size 5","Counts/Channel 5","Micron Size 6","Counts/Channel 6","Micron Size 7","Counts/Channel 7","Micron Size 8","Counts/Channel 8","Micron Size 9","Counts/Channel 9","Micron Size 10","Counts/Channel 10","Micron Size 11","Counts/Channel 11","Micron Size 12","Counts/Channel 12","Micron Size 13","Counts/Channel 13","Micron Size 14","Counts/Channel 14","Micron Size 15","Counts/Channel 15","Micron Size 16","Counts/Channel 16","Micron Size 17","Counts/Channel 17","Micron Size 18","Counts/Channel 18","Micron Size 19","Counts/Channel 19","Micron Size 20","Counts/Channel 20","Micron Size 21","Counts/Channel 21","Micron Size 22","Counts/Channel 22","Micron Size 23","Counts/Channel 23","Micron Size 24","Counts/Channel 24","Micron Size 25","Counts/Channel 25","Micron Size 26","Counts/Channel 26","Micron Size 27","Counts/Channel 27","Micron Size 28","Counts/Channel 28","Micron Size 29","Counts/Channel 29","Micron Size 30","Counts/Channel 30","Micron Size 31","Counts/Channel 31"
"04/02/08","22:00:01",26894.000,"cc",28341.234,6.00,6,0.100,24055.000,0.200,1116.000,0.300,695.000,0.500,761.000,1.000,267.000,5.000,0
"04/02/08","22:00:07",26246.000,"cc",28384.141,6.00,6,0.100,23646.000,0.200,989.000,0.300,658.000,0.500,712.000,1.000,241.000,5.000,0
"04/02/08","22:00:13",27028.000,"cc",28288.363,6.00,6,0.100,23982.000,0.200,1198.000,0.300,725.000,0.500,835.000,1.000,288.000,5.000,0
"04/02/08","22:00:19",26442.000,"cc",28340.893,6.00,6,0.100,23823.000,0.200,1034.000,0.300,603.000,0.500,717.000,1.000,265.000,5.000,0
"04/02/08","22:00:25",26442.000,"cc",28347.807,6.00,6,0.100,23742.000,0.200,1099.000,0.300,657.000,0.500,701.000,1.000,243.000,5.000,0
"04/02/08","22:00:31",26566.000,"cc",28346.227,6.00,6,0.100,23971.000,0.200,1072.000,0.300,609.000,0.500,671.000,1.000,243.000,5.000,0
"04/02/08","22:00:37",26344.000,"cc",28233.559,6.00,6,0.100,23871.000,0.200,985.000,0.300,590.000,0.500,668.000,1.000,230.000,5.000,0
"04/02/08","22:00:43",26820.000,"cc",28323.807,6.00,6,0.100,23995.000,0.200,1165.000,0.300,667.000,0.500,763.000,1.000,230.000,5.000,0
"04/02/08","22:00:49",26637.000,"cc",28364.627,6.00,6,0.100,23961.000,0.200,1026.000,0.300,633.000,0.500,764.000,1.000,253.000,5.000,0
"04/02/08","22:00:55",26701.000,"cc",28243.998,6.00,6,0.100,23993.000,0.200,1100.000,0.300,638.000,0.500,705.000,1.000,265.000,5.000,0
"04/02/08","22:01:01",27392.000,"cc",28351.824,6.00,6,0.100,24152.000,0.200,1271.000,0.300,782.000,0.500,889.000,1.000,298.000,5.000,0
"04/02/08","22:01:07",26764.000,"cc",28366.479,6.00,6,0.100,24133.000,0.200,1031.000,0.300,611.000,0.500,722.000,1.000,267.000,5.000,0
"04/02/08","22:01:13",26965.000,"cc",28241.596,6.00,6,0.100,23936.000,0.200,1165.000,0.300,736.000,0.500,836.000,1.000,292.000,5.000,0
"04/02/08","22:01:19",26852.000,"cc",28347.549,6.00,6,0.100,24196.000,0.200,1051.000,0.300,658.000,0.500,689.000,1.000,258.000,5.000,0
"04/02/08","22:01:25",27063.000,"cc",28376.117,6.00,6,0.100,24219.000,0.200,1087.000,0.300,726.000,0.500,775.000,1.000,256.000,5.000,0
"04/02/08","22:01:31",27355.000,"cc",28328.238,6.00,6,0.100,24272.000,0.200,1231.000,0.300,698.000,0.500,851.000,1.000,302.000,5.000,1.000
"04/02/08","22:01:37",27303.000,"cc",28332.213,6.00,6,0.100,24218.000,0.200,1185.000,0.300,729.000,0.500,898.000,1.000,273.000,5.000,0
"04/02/08","22:01:43",26646.000,"cc",28356.756,6.00,6,0.100,23935.000,0.200,1099.000,0.300,613.000,0.500,721.000,1.000,278.000,5.000,0
"04/02/08","22:01:49",26973.000,"cc",28392.295,6.00,6,0.100,24277.000,0.200,1064.000,0.300,612.000,0.500,765.000,1.000,255.000,5.000,0
"04/02/08","22:01:55",26938.000,"cc",28227.865,6.00,6,0.100,24160.000,0.200,1082.000,0.300,672.000,0.500,799.000,1.000,225.000,5.000,0
"04/02/08","22:02:01",26835.000,"cc",28312.234,6.00,6,0.100,24037.000,0.200,1140.000,0.300,641.000,0.500,746.000,1.000,271.000,5.000,0
"04/02/08","22:02:07",26418.000,"cc",28242.227,6.00,6,0.100,23780.000,0.200,1090.000,0.300,616.000,0.500,692.000,1.000,240.000,5.000,0
"04/02/08","22:02:13",27093.000,"cc",28286.338,6.00,6,0.100,24190.000,0.200,1098.000,0.300,703.000,0.500,849.000,1.000,253.000,5.000,0
"04/02/08","22:02:19",27013.000,"cc",28350.361,6.00,6,0.100,24269.000,0.200,1108.000,0.300,640.000,0.500,732.000,1.000,264.000,5.000,0
"04/02/08","22:02:25",26669.000,"cc",28403.721,6.00,6,0.100,24103.000,0.200,1002.000,0.300,620.000,0.500,706.000,1.000,238.000,5.000,0
"04/02/08","22:02:31",26692.000,"cc",28329.815,6.00,6,0.100,24116.000,0.200,1038.000,0.300,571.000,0.500,699.000,1.000,268.000,5.000,0
"04/02/08","22:02:37",26597.000,"cc",28329.164,6.00,6,0.100,23940.000,0.200,1053.000,0.300,596.000,0.500,728.000,1.000,280.000,5.000,0
"04/02/08","22:02:43",26355.000,"cc",28276.609,6.00,6,0.100,23824.000,0.200,987.000,0.300,565.000,0.500,712.000,1.000,267.000,5.000,0
"04/02/08","22:02:49",26518.000,"cc",28357.195,6.00,6,0.100,23832.000,0.200,1084.000,0.300,662.000,0.500,692.000,1.000,248.000,5.000,0
"04/02/08","22:02:55",26613.000,"cc",28426.277,6.00,6,0.100,24044.000,0.200,1025.000,0.300,592.000,0.500,690.000,1.000,262.000,5.000,0
"04/02/08","22:03:01",26283.000,"cc",28280.545,6.00,6,0.100,23565.000,0.200,1091.000,0.300,635.000,0.500,730.000,1.000,262.000,5.000,0
"04/02/08","22:03:07",26257.000,"cc",28313.512,6.00,6,0.100,23573.000,0.200,1083.000,0.300,662.000,0.500,697.000,1.000,242.000,5.000,0
"04/02/08","22:03:13",26338.000,"cc",28383.397,6.00,6,0.100,23763.000,0.200,1040.000,0.300,587.000,0.500,693.000,1.000,255.000,5.000,0
"04/02/08","22:03:19",26078.000,"cc",28307.943,6.00,6,0.100,23487.000,0.200,1051.000,0.300,586.000,0.500,695.000,1.000,259.000,5.000,0
"04/02/08","22:03:25",26175.000,"cc",28296.479,6.00,6,0.100,23762.000,0.200,1038.000,0.300,549.000,0.500,588.000,1.000,238.000,5.000,0
"04/02/08","22:03:31",26581.000,"cc",28213.471,6.00,6,0.100,24009.000,0.200,1040.000,0.300,629.000,0.500,676.000,1.000,227.000,5.000,0
"04/02/08","22:03:37",26342.000,"cc",28296.416,6.00,6,0.100,23772.000,0.200,1021.000,0.300,593.000,0.500,702.000,1.000,254.000,5.000,0
"04/02/08","22:03:43",26921.000,"cc",28282.191,6.00,6,0.100,24394.000,0.200,1005.000,0.300,629.000,0.500,638.000,1.000,255.000,5.000,0
"04/02/08","22:03:49",26657.000,"cc",28299.293,6.00,6,0.100,24165.000,0.200,997.000,0.300,551.000,0.500,696.000,1.000,248.000,5.000,0
"04/02/08","22:03:55",26694.000,"cc",28286.482,6.00,6,0.100,23979.000,0.200,1149.000,0.300,628.000,0.500,689.000,1.000,249.000,5.000,0
"04/02/08","22:04:01",26501.000,"cc",28242.654,6.00,6,0.100,23827.000,0.200,1061.000,0.300,665.000,0.500,679.000,1.000,269.000,5.000,0
"04/02/08","22:04:07",26644.000,"cc",28359.586,6.00,6,0.100,24037.000,0.200,1055.000,0.300,595.000,0.500,692.000,1.000,265.000,5.000,0
"04/02/08","22:04:13",26798.000,"cc",28359.799,6.00,6,0.100,24121.000,0.200,1071.000,0.300,603.000,0.500,751.000,1.000,252.000,5.000,0
"04/02/08","22:04:19",26508.000,"cc",28387.914,6.00,6,0.100,24091.000,0.200,977.000,0.300,540.000,0.500,678.000,1.000,222.000,5.000,0
"04/02/08","22:04:25",26829.000,"cc",28229.529,6.00,6,0.100,24324.000,0.200,1008.000,0.300,585.000,0.500,659.000,1.000,253.000,5.000,0
"04/02/08","22:04:31",26924.000,"cc",28319.635,6.00,6,0.100,24248.000,0.200,1117.000,0.300,616.000,0.500,678.000,1.000,265.000,5.000,0
"04/02/08","22:04:37",27151.000,"cc",28220.037,6.00,6,0.100,24184.000,0.200,1149.000,0.300,717.000,0.500,793.000,1.000,308.000,5.000,0
"04/02/08","22:04:43",26676.000,"cc",28265.623,6.00,6,0.100,24023.000,0.200,1069.000,0.300,630.000,0.500,695.000,1.000,259.000,5.000,0
"04/02/08","22:04:49",26753.000,"cc",28362.451,6.00,6,0.100,24052.000,0.200,1109.000,0.300,622.000,0.500,711.000,1.000,259.000,5.000,0
"04/02/08","22:04:55",27052.000,"cc",28367.461,6.00,6,0.100,24317.000,0.200,1099.000,0.300,646.000,0.500,747.000,1.000,243.000,5.000,0
"04/02/08","22:05:01",26959.000,"cc",28360.137,6.00,6,0.100,24176.000,0.200,1100.000,0.300,691.000,0.500,735.000,1.000,257.000,5.000,0
"04/02/08","22:05:07",26836.000,"cc",28279.873,6.00,6,0.100,24121.000,0.200,1107.000,0.300,587.000,0.500,739.000,1.000,282.000,5.000,0
"04/02/08","22:05:13",27380.000,"cc",28168.846,6.00,6,0.100,24627.000,0.200,1114.000,0.300,656.000,0.500,731.000,1.000,252.000,5.000,0
"04/02/08","22:05:19",27205.000,"cc",28419.793,6.00,6,0.100,24407.000,0.200,1099.000,0.300,674.000,0.500,762.000,1.000,263.000,5.000,0
"04/02/08","22:05:25",27049.000,"cc",28298.070,6.00,6,0.100,24287.000,0.200,1134.000,0.300,644.000,0.500,735.000,1.000,249.000,5.000,0
"04/02/08","22:05:31",27149.000,"cc",28375.902,6.00,6,0.100,24285.000,0.200,1137.000,0.300,700.000,0.500,745.000,1.000,282.000,5.000,0
"04/02/08","22:05:37",27460.000,"cc",28403.363,6.00,6,0.100,24600.000,0.200,1129.000,0.300,689.000,0.500,754.000,1.000,288.000,5.000,0
"04/02/08","22:05:43",27088.000,"cc",28265.838,6.00,6,0.100,24318.000,0.200,1113.000,0.300,667.000,0.500,713.000,1.000,277.000,5.000,0
"04/02/08","22:05:49",27217.000,"cc",28286.988,6.00,6,0.100,24391.000,0.200,1133.000,0.300,661.000,0.500,747.000,1.000,285.000,5.000,0
"04/02/08","22:05:55",27354.000,"cc",28257.164,6.00,6,0.100,24669.000,0.200,1053.000,0.300,623.000,0.500,744.000,1.000,265.000,5.000,0
"04/02/08","22:06:01",27252.000,"cc",28245.346,6.00,6,0.100,24400.000,0.200,1132.000,0.300,645.000,0.500,791.000,1.000,283.000,5.000,1.000
"04/02/08","22:06:07",27399.000,"cc",28281.992,6.00,6,0.100,24456.000,0.200,1183.000,0.300,718.000,0.500,781.000,1.000,261.000,5.000,0
"04/02/08","22:06:13",26941.000,"cc",28087.637,6.00,6,0.100,24235.000,0.200,1060.000,0.300,625.000,0.500,744.000,1.000,277.000,5.000,0
"04/02/08","22:06:19",26939.000,"cc",28317.143,6.00,6,0.100,24191.000,0.200,1117.000,0.300,618.000,0.500,756.000,1.000,257.000,5.000,0
"04/02/08","22:06:25",27319.000,"cc",28151.590,6.00,6,0.100,24431.000,0.200,1161.000,0.300,707.000,0.500,775.000,1.000,245.000,5.000,0
"04/02/08","22:06:31",27150.000,"cc",28293.531,6.00,6,0.100,24256.000,0.200,1167.000,0.300,683.000,0.500,772.000,1.000,272.000,5.000,0
"04/02/08","22:06:37",26986.000,"cc",28308.959,6.00,6,0.100,24152.000,0.200,1131.000,0.300,635.000,0.500,782.000,1.000,286.000,5.000,0
"04/02/08","22:06:43",27074.000,"cc",28370.619,6.00,6,0.100,24124.000,0.200,1206.000,0.300,620.000,0.500,809.000,1.000,315.000,5.000,0
"04/02/08","22:06:49",26704.000,"cc",28262.049,6.00,6,0.100,24161.000,0.200,1024.000,0.300,604.000,0.500,668.000,1.000,247.000,5.000,0
"04/02/08","22:06:55",26526.000,"cc",28372.379,6.00,6,0.100,24011.000,0.200,1001.000,0.300,600.000,0.500,650.000,1.000,264.000,5.000,0
"04/02/08","22:07:01",26722.000,"cc",28330.563,6.00,6,0.100,23999.000,0.200,1117.000,0.300,614.000,0.500,699.000,1.000,293.000,5.000,0
"04/02/08","22:07:07",26776.000,"cc",28307.104,6.00,6,0.100,23987.000,0.200,1080.000,0.300,666.000,0.500,760.000,1.000,283.000,5.000,0
"04/02/08","22:07:13",26730.000,"cc",28283.756,6.00,6,0.100,23831.000,0.200,1163.000,0.300,698.000,0.500,756.000,1.000,282.000,5.000,0
"04/02/08","22:07:19",25954.000,"cc",28428.668,6.00,6,0.100,23307.000,0.200,1009.000,0.300,590.000,0.500,776.000,1.000,272.000,5.000,0
"04/02/08","22:07:25",25771.000,"cc",28294.369,6.00,6,0.100,23306.000,0.200,943.000,0.300,572.000,0.500,678.000,1.000,272.000,5.000,0
"04/02/08","22:07:31",26099.000,"cc",28310.131,6.00,6,0.100,23487.000,0.200,1072.000,0.300,565.000,0.500,718.000,1.000,257.000,5.000,0
"04/02/08","22:07:37",25881.000,"cc",28214.469,6.00,6,0.100,23289.000,0.200,1018.000,0.300,595.000,0.500,690.000,1.000,289.000,5.000,0
"04/02/08","22:07:43",25835.000,"cc",28325.020,6.00,6,0.100,23305.000,0.200,1000.000,0.300,587.000,0.500,702.000,1.000,241.000,5.000,0
"04/02/08","22:07:49",25521.000,"cc",28332.838,6.00,6,0.100,23067.000,0.200,979.000,0.300,541.000,0.500,695.000,1.000,239.000,5.000,0
"04/02/08","22:07:55",26176.000,"cc",28275.670,6.00,6,0.100,23811.000,0.200,998.000,0.300,515.000,0.500,615.000,1.000,237.000,5.000,0
"04/02/08","22:08:01",25734.000,"cc",28268.219,6.00,6,0.100,23371.000,0.200,997.000,0.300,495.000,0.500,609.000,1.000,262.000,5.000,0
"04/02/08","22:08:07",25662.000,"cc",28262.231,6.00,6,0.100,23455.000,0.200,858.000,0.300,569.000,0.500,591.000,1.000,189.000,5.000,0
"04/02/08","22:08:13",26140.000,"cc",28375.180,6.00,6,0.100,23619.000,0.200,1032.000,0.300,566.000,0.500,644.000,1.000,279.000,5.000,0
"04/02/08","22:08:19",25594.000,"cc",28377.035,6.00,6,0.100,23225.000,0.200,949.000,0.300,544.000,0.500,633.000,1.000,243.000,5.000,0
"04/02/08","22:08:25",25719.000,"cc",28279.938,6.00,6,0.100,23357.000,0.200,947.000,0.300,521.000,0.500,648.000,1.000,246.000,5.000,0
"04/02/08","22:08:31",25930.000,"cc",28261.822,6.00,6,0.100,23455.000,0.200,1019.000,0.300,569.000,0.500,662.000,1.000,225.000,5.000,0
"04/02/08","22:08:37",26225.000,"cc",28367.875,6.00,6,0.100,23568.000,0.200,1046.000,0.300,636.000,0.500,725.000,1.000,250.000,5.000,0
"04/02/08","22:08:43",26555.000,"cc",28345.863,6.00,6,0.100,23973.000,0.200,1021.000,0.300,586.000,0.500,706.000,1.000,269.000,5.000,0
"04/02/08","22:08:49",26827.000,"cc",28376.004,6.00,6,0.100,24141.000,0.200,1061.000,0.300,624.000,0.500,723.000,1.000,278.000,5.000,0
"04/02/08","22:08:55",26652.000,"cc",28317.606,6.00,6,0.100,24107.000,0.200,1042.000,0.300,598.000,0.500,650.000,1.000,255.000,5.000,0
"04/02/08","22:09:01",26533.000,"cc",28276.617,6.00,6,0.100,24051.000,0.200,972.000,0.300,549.000,0.500,701.000,1.000,260.000,5.000,0
"04/02/08","22:09:07",26772.000,"cc",28297.154,6.00,6,0.100,24141.000,0.200,1035.000,0.300,601.000,0.500,724.000,1.000,271.000,5.000,0
"04/02/08","22:09:13",26670.000,"cc",28341.121,6.00,6,0.100,24080.000,0.200,1033.000,0.300,586.000,0.500,683.000,1.000,288.000,5.000,0
"04/02/08","22:09:19",26805.000,"cc",28358.262,6.00,6,0.100,24121.000,0.200,1077.000,0.300,600.000,0.500,751.000,1.000,256.000,5.000,0
"04/02/08","22:09:25",26751.000,"cc",28231.473,6.00,6,0.100,24088.000,0.200,1015.000,0.300,631.000,0.500,717.000,1.000,300.000,5.000,0
"04/02/08","22:09:31",26031.000,"cc",28272.438,6.00,6,0.100,23581.000,0.200,977.000,0.300,586.000,0.500,641.000,1.000,246.000,5.000,0
"04/02/08","22:09:37",26570.000,"cc",28341.908,6.00,6,0.100,24030.000,0.200,1019.000,0.300,621.000,0.500,647.000,1.000,253.000,5.000,0
"04/02/08","22:09:43",26266.000,"cc",28330.955,6.00,6,0.100,23764.000,0.200,1005.000,0.300,578.000,0.500,657.000,1.000,262.000,5.000,0
"04/02/08","22:09:49",27015.000,"cc",28294.430,6.00,6,0.100,24116.000,0.200,1154.000,0.300,705.000,0.500,767.000,1.000,273.000,5.000,0
"04/02/08","22:09:55",27143.000,"cc",28258.316,6.00,6,0.100,24319.000,0.200,1096.000,0.300,640.000,0.500,786.000,1.000,302.000,5.000,0
"04/02/08","22:10:01",26527.000,"cc",28323.574,6.00,6,0.100,23844.000,0.200,1042.000,0.300,623.000,0.500,728.000,1.000,290.000,5.000,0
"04/02/08","22:10:07",26056.000,"cc",28265.377,6.00,6,0.100,23519.000,0.200,1008.000,0.300,557.000,0.500,730.000,1.000,242.000,5.000,0
"04/02/08","22:10:13",26427.000,"cc",28295.512,6.00,6,0.100,23744.000,0.200,1044.000,0.300,649.000,0.500,737.000,1.000,253.000,5.000,0
"04/02/08","22:10:19",26665.000,"cc",28296.957,6.00,6,0.100,23579.000,0.200,1246.000,0.300,708.000,0.500,843.000,1.000,289.000,5.000,0
"04/02/08","22:10:25",26754.000,"cc",28294.186,6.00,6,0.100,23812.000,0.200,1186.000,0.300,693.000,0.500,777.000,1.000,286.000,5.000,0
"04/02/08","22:10:31",26960.000,"cc",28268.121,6.00,6,0.100,23970.000,0.200,1159.000,0.300,751.000,0.500,781.000,1.000,299.000,5.000,0
"04/02/08","22:10:37",27412.000,"cc",28343.045,6.00,6,0.100,24376.000,0.200,1150.000,0.300,736.000,0.500,839.000,1.000,311.000,5.000,0
"04/02/08","22:10:43",27485.000,"cc",28295.703,6.00,6,0.100,24466.000,0.200,1203.000,0.300,752.000,0.500,762.000,1.000,302.000,5.000,0
"04/02/08","22:10:49",28099.000,"cc",28365.357,6.00,6,0.100,24777.000,0.200,1332.000,0.300,812.000,0.500,885.000,1.000,293.000,5.000,0
"04/02/08","22:10:55",28452.000,"cc",28352.266,6.00,6,0.100,24939.000,0.200,1459.000,0.300,873.000,0.500,878.000,1.000,303.000,5.000,0
"04/02/08","22:11:01",29519.000,"cc",28315.887,6.00,6,0.100,25792.000,0.200,1552.000,0.300,892.000,0.500,955.000,1.000,328.000,5.000,0
"04/02/08","22:11:07",37454.000,"cc",28245.135,6.00,6,0.100,32883.000,0.200,2313.000,0.300,970.000,0.500,980.000,1.000,308.000,5.000,0
"04/02/08","22:11:13",35592.000,"cc",28354.906,6.00,6,0.100,31797.000,0.200,1936.000,0.300,812.000,0.500,831.000,1.000,216.000,5.000,0
"04/02/08","22:11:19",30993.000,"cc",28316.736,6.00,6,0.100,26933.000,0.200,1828.000,0.300,966.000,0.500,939.000,1.000,327.000,5.000,0
"04/02/08","22:11:25",35720.000,"cc",28384.565,6.00,6,0.100,30336.000,0.200,2508.000,0.300,1318.000,0.500,1197.000,1.000,361.000,5.000,0
"04/02/08","22:11:31",30963.000,"cc",28334.004,6.00,6,0.100,27213.000,0.200,1657.000,0.300,883.000,0.500,919.000,1.000,291.000,5.000,0
"04/02/08","22:11:37",31199.000,"cc",28299.744,6.00,6,0.100,27004.000,0.200,1839.000,0.300,1018.000,0.500,991.000,1.000,347.000,5.000,0
"04/02/08","22:11:43",30116.000,"cc",28266.768,6.00,6,0.100,26031.000,0.200,1702.000,0.300,1036.000,0.500,983.000,1.000,364.000,5.000,0
"04/02/08","22:11:49",30569.000,"cc",28317.539,6.00,6,0.100,26556.000,0.200,1737.000,0.300,945.000,0.500,1006.000,1.000,325.000,5.000,0
"04/02/08","22:11:55",29627.000,"cc",28345.059,6.00,6,0.100,25930.000,0.200,1602.000,0.300,872.000,0.500,903.000,1.000,320.000,5.000,0
"04/02/08","22:12:01",31495.000,"cc",28328.668,6.00,6,0.100,27636.000,0.200,1664.000,0.300,912.000,0.500,964.000,1.000,319.000,5.000,0
"04/02/08","22:12:07",38200.000,"cc",28331.912,6.00,6,0.100,33037.000,0.200,2467.000,0.300,1168.000,0.500,1166.000,1.000,362.000,5.000,0
"04/02/08","22:12:13",70464.000,"cc",28327.049,6.00,6,0.100,61921.000,0.200,5452.000,0.300,1397.000,0.500,1295.000,1.000,399.000,5.000,0
"04/02/08","22:12:19",76813.000,"cc",28264.451,6.00,6,0.100,67543.000,0.200,6186.000,0.300,1400.000,0.500,1262.000,1.000,422.000,5.000,0
"04/02/08","22:12:25",120917.000,"cc",28275.697,6.00,6,0.100,106369.000,0.200,10921.000,0.300,1827.000,0.500,1342.000,1.000,458.000,5.000,0
"04/02/08","22:12:31",136474.000,"cc",28298.637,6.00,6,0.100,120466.000,0.200,12363.000,0.300,1895.000,0.500,1352.000,1.000,397.000,5.000,1.000
"04/02/08","22:12:37",189784.000,"cc",28323.672,6.00,6,0.100,166867.000,0.200,18602.000,0.300,2277.000,0.500,1519.000,1.000,519.000,5.000,0
"04/02/08","22:12:43",206084.000,"cc",28317.586,6.00,6,0.100,181282.000,0.200,20455.000,0.300,2345.000,0.500,1506.000,1.000,496.000,5.000,0
"04/02/08","22:12:49",252767.000,"cc",28325.750,6.00,6,0.100,222437.000,0.200,26214.000,0.300,2405.000,0.500,1306.000,1.000,405.000,5.000,0
"04/02/08","22:12:55",189430.000,"cc",28322.348,6.00,6,0.100,167433.000,0.200,18134.000,0.300,2025.000,0.500,1393.000,1.000,445.000,5.000,0
"04/02/08","22:13:01",222634.000,"cc",28319.262,6.00,6,0.100,196405.000,0.200,22432.000,0.300,2080.000,0.500,1286.000,1.000,431.000,5.000,0
"04/02/08","22:13:07",224728.000,"cc",28327.025,6.00,6,0.100,198391.000,0.200,22964.000,0.300,1876.000,0.500,1117.000,1.000,380.000,5.000,0
"04/02/08","22:13:13",260528.000,"cc",28324.961,6.00,6,0.100,230181.000,0.200,26806.000,0.300,2042.000,0.500,1154.000,1.000,345.000,5.000,0
"04/02/08","22:13:19",195710.000,"cc",28269.711,6.00,6,0.100,174430.000,0.200,18424.000,0.300,1553.000,0.500,992.000,1.000,311.000,5.000,0
"04/02/08","22:13:25",203682.000,"cc",28345.037,6.00,6,0.100,180055.000,0.200,20374.000,0.300,1851.000,0.500,1056.000,1.000,346.000,5.000,0
"04/02/08","22:13:31",290115.000,"cc",28321.664,6.00,6,0.100,255239.000,0.200,31234.000,0.300,2238.000,0.500,1046.000,1.000,358.000,5.000,0
"04/02/08","22:13:37",302166.000,"cc",28365.326,6.00,6,0.100,252945.000,0.200,44229.000,0.300,3209.000,0.500,1330.000,1.000,453.000,5.000,0
"04/02/08","22:13:43",254512.000,"cc",28314.981,6.00,6,0.100,225864.000,0.200,25027.000,0.300,2045.000,0.500,1184.000,1.000,392.000,5.000,0
"04/02/08","22:13:49",268541.000,"cc",28337.953,6.00,6,0.100,215833.000,0.200,48415.000,0.300,2852.000,0.500,1077.000,1.000,364.000,5.000,0
"04/02/08","22:13:55",342457.000,"cc",28244.744,6.00,6,0.100,299731.000,0.200,38608.000,0.300,2603.000,0.500,1162.000,1.000,353.000,5.000,0
"04/02/08","22:14:01",360382.000,"cc",28245.916,6.00,6,0.100,315292.000,0.200,41290.000,0.300,2497.000,0.500,994.000,1.000,309.000,5.000,0
"04/02/08","22:14:07",312460.000,"cc",28367.721,6.00,6,0.100,274462.000,0.200,34369.000,0.300,2291.000,0.500,995.000,1.000,343.000,5.000,0
"04/02/08","22:14:13",270206.000,"cc",28337.096,6.00,6,0.100,216148.000,0.200,49654.000,0.300,3016.000,0.500,1041.000,1.000,347.000,5.000,0
"04/02/08","22:14:19",389238.000,"cc",28296.914,6.00,6,0.100,337944.000,0.200,46947.000,0.300,2879.000,0.500,1134.000,1.000,334.000,5.000,0
"04/02/08","22:14:25",392571.000,"cc",28283.736,6.00,6,0.100,340403.000,0.200,47702.000,0.300,3042.000,0.500,1068.000,1.000,356.000,5.000,0
"04/02/08","22:14:31",220341.000,"cc",28324.102,6.00,6,0.100,144317.000,0.200,70435.000,0.300,4066.000,0.500,1180.000,1.000,343.000,5.000,0
"04/02/08","22:14:37",234735.000,"cc",28320.912,6.00,6,0.100,153182.000,0.200,75778.000,0.300,4309.000,0.500,1127.000,1.000,339.000,5.000,0
"04/02/08","22:14:43",198253.000,"cc",28366.625,6.00,6,0.100,103582.000,0.200,88515.000,0.300,4843.000,0.500,1020.000,1.000,293.000,5.000,0
"04/02/08","22:14:49",243563.000,"cc",28333.496,6.00,6,0.100,155973.000,0.200,81668.000,0.300,4454.000,0.500,1140.000,1.000,328.000,5.000,0
"04/02/08","22:14:55",278010.000,"cc",28299.311,6.00,6,0.100,201161.000,0.200,71342.000,0.300,4037.000,0.500,1130.000,1.000,340.000,5.000,0
"04/02/08","22:15:01",241935.000,"cc",28293.121,6.00,6,0.100,178019.000,0.200,58989.000,0.300,3482.000,0.500,1123.000,1.000,322.000,5.000,0
"04/02/08","22:15:07",236416.000,"cc",28350.424,6.00,6,0.100,155621.000,0.200,75326.000,0.300,4113.000,0.500,1039.000,1.000,317.000,5.000,0
"04/02/08","22:15:13",296687.000,"cc",28275.809,6.00,6,0.100,215227.000,0.200,75933.000,0.300,4186.000,0.500,1021.000,1.000,320.000,5.000,0
"04/02/08","22:15:19",209835.000,"cc",28289.125,6.00,6,0.100,136002.000,0.200,68654.000,0.300,3761.000,0.500,1085.000,1.000,333.000,5.000,0
"04/02/08","22:15:25",318418.000,"cc",28309.256,6.00,6,0.100,280506.000,0.200,34260.000,0.300,2234.000,0.500,1076.000,1.000,342.000,5.000,0
"04/02/08","22:15:31",352185.000,"cc",28320.035,6.00,6,0.100,295768.000,0.200,52201.000,0.300,2869.000,0.500,1016.000,1.000,331.000,5.000,0
"04/02/08","22:15:37",295269.000,"cc",28338.096,6.00,6,0.100,237154.000,0.200,53971.000,0.300,2935.000,0.500,913.000,1.000,296.000,5.000,0
"04/02/08","22:15:43",272068.000,"cc",28286.434,6.00,6,0.100,202931.000,0.200,64342.000,0.300,3442.000,0.500,1024.000,1.000,329.000,5.000,0
"04/02/08","22:15:49",289739.000,"cc",28304.174,6.00,6,0.100,232516.000,0.200,52485.000,0.300,3131.000,0.500,1200.000,1.000,407.000,5.000,0
"04/02/08","22:15:55",346673.000,"cc",28252.699,6.00,6,0.100,302519.000,0.200,40174.000,0.300,2592.000,0.500,1039.000,1.000,349.000,5.000,0
"04/02/08","22:16:01",286453.000,"cc",28337.490,6.00,6,0.100,228745.000,0.200,52835.000,0.300,3322.000,0.500,1202.000,1.000,349.000,5.000,0
"04/02/08","22:16:07",381854.000,"cc",28360.807,6.00,6,0.100,332171.000,0.200,44978.000,0.300,3044.000,0.500,1221.000,1.000,440.000,5.000,0
"04/02/08","22:16:13",290814.000,"cc",28340.291,6.00,6,0.100,255822.000,0.200,30654.000,0.300,2429.000,0.500,1445.000,1.000,464.000,5.000,0
"04/02/08","22:16:19",233835.000,"cc",28259.779,6.00,6,0.100,207830.000,0.200,22582.000,0.300,1927.000,0.500,1127.000,1.000,369.000,5.000,0
"04/02/08","22:16:25",149582.000,"cc",28445.473,6.00,6,0.100,133123.000,0.200,12927.000,0.300,1781.000,0.500,1319.000,1.000,432.000,5.000,0